Location: Beang
(6.6177°N, 10.9863°W)
Time: 01:02:27
(UTC+00:00)

Cosmos 1689 Rocket - Pass Details

Date: 07 June 2020
Orbit: 367 x 382 km, 97.5° (Epoch: 13 July)

Event Time Altitude Azimuth Distance (km) Brightness Sun altitude
Rises 05:40:32 0° 171° (S) 2,212 5.8 -11.6°
Reaches altitude 10° 05:42:28 10° 172° (S) 1,365 4.7 -11.2°
Maximum altitude 05:45:22 78° 259° (W) 383 1.9 -10.5°
Drops below altitude 10° 05:48:16 10° 346° (NNW) 1,370 5.0 -9.9°
Sets 05:50:13 0° 347° (NNW) 2,221 6.1 -9.4°
